{"data":{"norad_id":63943,"intl_designator":"2025-098T","name":"STARLINK-33985","alt_names":[],"object_type":"PAYLOAD","status":"ACTIVE","operator":null,"country":"US","launch_date":"2025-05-13","launch_site_code":"AFWTR","launch_vehicle":null,"mission":null,"orbit_class":"UNKNOWN","rcs_meters":null,"size_class":null,"mass_kg":null,"dimensions":null,"purposes":["comms"],"wikipedia_slug":null,"has_3d_model":false,"image_url":null,"decayed_at":null,"tle_current":{"epoch":"2026-05-25T02:47:31.212672Z","epoch_age_seconds":55218,"freshness":"FRESH","line1":"1 63943U 25098T   26145.11633348  .00012050  00000+0  10150-2 0  9992","line2":"2 63943  70.0010  81.6186 0003090 267.4171  92.6634 14.98365945 58002","mean_motion":14.98365945,"eccentricity":0.000309,"inclination_deg":70.001,"raan_deg":81.6186,"arg_perigee_deg":267.4171,"mean_anomaly_deg":92.6634,"bstar":0.001015,"rev_number":5800,"period_min":96.104693570034,"perigee_km":569.79716096271,"apogee_km":574.09231147569,"semimajor_km":6950.0817362192,"source":"CELESTRAK","updated_at":"2026-05-25T13:38:20.186724Z"}}}